Dewpoint
60 60 60 60 60 60 59 59 59 59 60 60 61 61 61 61 61 62 62 62 62 62 62 62 62 63 63 63 63 62 61 58 42 35 33 34 52 58 58 61 62 63 62 54 49 31 29 33 25 26 33 42 48 42 46 48 41 43 39 36 29 24 22 23 22 21 22 19 16 16 18 18 18 18 21 20 18 22 21 21 21 23 23 25 29 31 28 29
59 60 60 60 59 59 59 59 59 60 60 61 61 62 61 61 61 62 61 61 61 62 61 62 62 62 63 62 62 62 59 59 39 38 36 50 58 57 59 61 62 62 59 37 28 26 32 23 24 26 31 32 49 38 44 46 45 39 34 29 25 26 22 18 18 16 16 18 18 18 18 17 18 19 19 18 19 21 21 21 21 20 21 22 21 23 21 20
59 59 59 59 59 59 59 59 59 60 60 61 61 61 61 60 60 61 61 61 61 61 61 62 62 62 62 62 62 62 59 60 42 33 42 59 57 59 60 62 62 62 54 36 35 26 26 26 26 26 34 28 40 38 43 42 40 40 33 28 26 27 20 20 20 18 18 19 19 19 18 20 17 19 21 24 20 22 20 20 20 19 19 20 21 21 18 17
59 59 59 59 59 59 59 59 59 59 60 61 61 61 61 59 59 61 61 61 61 61 62 62 62 62 62 62 62 60 61 57 39 35 38 60 58 61 61 61 62 60 47 35 31 27 28 27 26 26 38 30 37 40 36 40 40 36 31 28 29 21 23 21 21 19 19 21 20 20 19 18 18 20 21 19 19 21 20 20 18 17 17 18 19 23 21 19
59 59 58 59 58 58 58 58 59 59 60 60 61 61 60 59 59 59 60 60 60 61 62 62 62 62 62 61 60 60 62 39 40 42 41 60 59 60 61 60 62 57 43 33 29 26 25 27 26 32 39 30 33 30 24 34 35 35 21 25 25 22 22 23 21 21 21 23 21 19 18 19 20 20 20 21 21 21 20 18 17 16 15 15 16 19 21 19
59 59 58 58 58 57 57 58 59 60 60 60 61 62 61 59 59 59 59 59 60 61 62 62 62 62 62 58 58 60 57 26 44 48 57 56 59 60 62 63 60 58 47 41 33 28 28 25 24 33 21 17 20 17 24 25 32 23 23 22 21 21 18 23 21 23 21 22 20 21 21 21 20 19 22 22 21 21 19 17 16 15 14 14 16 21 22 21
58 58 58 57 57 57 57 58 59 59 60 61 61 61 62 60 59 58 58 59 60 61 62 62 62 62 61 56 61 53 45 40 42 51 56 56 56 57 59 59 57 53 37 29 29 29 30 30 20 23 25 24 21 22 25 32 32 26 19 21 22 22 19 22 20 23 21 22 21 19 21 20 19 18 22 22 21 18 17 15 14 14 13 13 14 16 19 21
58 58 57 57 57 57 57 58 58 59 60 60 61 61 62 61 59 58 58 59 61 61 62 62 61 61 60 61 60 50 44 40 34 44 52 55 44 42 48 49 47 42 32 30 31 29 31 28 21 27 22 21 28 24 27 27 20 25 25 23 22 22 22 23 20 19 21 21 20 20 18 19 18 20 22 21 19 17 15 14 13 14 13 14 11 12 19 21
58 58 57 56 56 56 57 58 58 59 60 60 61 61 61 60 58 58 58 59 61 62 61 61 61 60 59 51 52 43 36 50 40 39 43 42 39 39 47 37 36 35 31 32 31 33 32 32 28 27 19 19 25 18 21 19 19 24 24 23 20 21 21 20 19 19 21 21 18 17 14 17 20 22 21 20 17 16 15 14 14 14 17 12 11 11 13 15
58 57 57 56 56 56 57 57 58 59 59 60 60 60 61 60 58 58 58 59 60 61 61 60 60 58 57 57 52 29 50 42 44 41 40 43 41 37 40 45 38 39 33 33 33 29 33 34 41 39 42 29 32 21 24 29 21 26 26 25 21 19 20 21 20 19 21 20 17 17 18 18 20 21 19 20 18 17 15 16 13 12 10 10 11 16 13 14
57 57 57 57 56 56 57 57 57 58 59 60 59 58 60 58 58 58 58 61 62 61 61 60 59 58 62 50 34 30 50 49 41 39 41 46 44 38 45 43 40 42 37 37 40 36 36 35 41 34 43 23 23 19 21 23 26 23 20 19 19 19 19 19 17 19 20 21 18 18 18 21 20 26 18 19 18 16 14 13 14 14 12 11 10 12 23 12
58 57 57 57 57 56 56 57 57 57 59 59 59 59 58 58 58 57 58 60 61 61 61 59 58 49 47 39 33 41 41 42 39 40 43 48 45 46 51 41 42 49 38 36 48 49 48 44 42 33 25 32 21 18 21 24 24 20 19 17 17 18 17 18 18 19 21 19 19 20 20 19 18 17 20 19 19 16 15 14 15 13 11 14 12 13 15 14
57 57 57 57 57 56 56 56 57 58 59 59 58 58 57 58 57 57 58 59 59 61 62 61 58 58 53 36 38 51 43 34 41 43 46 44 45 44 42 47 46 41 46 38 43 47 47 41 42 31 36 28 17 16 28 22 18 18 20 19 18 17 17 18 19 19 18 18 24 20 14 15 16 19 20 19 17 15 15 13 13 15 12 10 11 12 16 16
57 57 57 56 56 56 56 56 57 58 58 58 58 60 59 57 57 58 59 60 60 61 61 61 58 58 43 29 41 49 41 42 39 45 45 42 37 51 49 49 45 41 46 46 43 43 46 38 42 32 34 24 17 34 23 24 22 18 20 19 20 20 18 16 19 18 17 24 24 21 19 9 16 20 20 19 16 14 12 11 10 16 14 9 16 16 17 17
56 56 56 56 56 56 55 56 56 57 58 58 58 59 57 56 57 58 59 60 60 60 58 59 61 51 43 34 45 48 58 41 37 48 50 39 41 46 50 40 45 43 41 36 43 41 37 44 40 30 25 24 25 19 19 19 19 17 18 22 27 19 20 16 19 18 17 21 21 20 20 10 19 20 20 17 15 14 12 10 10 12 13 11 12 12 13 17
56 56 56 56 56 55 55 56 56 57 57 58 58 57 56 56 57 57 59 59 59 59 59 64 54 44 32 27 44 57 51 46 39 50 46 48 45 46 47 39 39 39 38 36 35 36 31 40 29 32 23 21 19 18 15 18 23 21 19 25 22 21 20 18 19 20 20 21 19 15 14 11 15 19 18 16 16 13 11 10 9 9 10 12 10 12 12 14
56 56 56 56 56 55 55 56 56 57 57 57 57 56 56 57 55 58 58 60 60 57 61 43 37 34 27 43 39 38 41 48 51 47 46 44 44 43 37 43 35 38 40 37 36 40 35 29 34 36 23 15 14 25 18 21 22 25 25 17 23 16 11 11 20 21 26 19 15 19 10 13 16 17 17 16 14 13 11 10 10 10 11 11 15 12 12 12
56 56 56 56 55 55 55 56 56 57 57 56 57 56 56 58 57 58 59 56 57 57 55 53 51 49 39 43 31 32 44 41 52 45 46 43 43 40 38 30 28 31 33 31 36 30 35 27 26 24 21 22 10 14 20 15 23 26 20 19 16 11 7 6 7 16 20 18 15 13 12 11 15 17 16 15 14 11 10 10 10 11 12 15 16 17 13 15
56 55 56 55 55 54 55 56 56 57 57 57 58 58 59 56 59 57 44 33 42 43 42 42 36 36 38 35 39 40 45 48 47 44 43 40 42 35 39 36 40 29 31 24 29 27 31 29 33 29 29 19 7 13 17 24 16 13 17 18 15 15 12 11 12 19 19 16 15 12 11 10 9 16 15 14 12 10 10 10 11 11 11 14 16 18 14 16
56 56 55 55 54 54 55 56 57 57 57 55 54 55 49 32 45 44 35 29 31 31 36 35 37 35 42 35 45 43 49 48 32 44 41 46 43 34 26 28 39 36 28 33 32 27 32 26 25 26 17 7 7 14 21 15 14 12 22 23 14 17 16 13 12 17 17 15 13 11 10 9 9 12 15 13 12 13 11 11 12 12 17 19 16 15 11 10
56 55 55 55 54 54 55 56 56 57 57 57 56 36 16 30 31 24 35 29 48 44 37 38 40 38 35 42 48 39 32 37 34 36 41 38 36 33 18 22 26 34 27 24 29 22 31 27 30 25 12 10 11 15 17 15 12 13 21 21 16 23 15 19 16 17 14 16 14 13 13 12 9 10 15 13 12 10 9 9 9 11 13 17 14 13 11 8
56 56 55 54 53 54 55 56 56 57 57 58 46 34 38 43 49 49 44 27 45 48 48 44 41 37 38 38 43 42 42 29 38 39 46 36 26 25 20 20 21 23 27 29 29 28 29 25 21 17 15 18 18 18 16 15 21 22 17 18 19 17 26 17 16 19 18 17 12 12 10 9 9 16 14 12 10 8 8 10 11 11 15 15 16 11 10 9
55 55 55 54 53 53 55 55 56 56 53 48 45 45 49 50 50 52 48 42 39 49 44 45 38 35 35 38 39 37 31 28 22 42 33 41 25 27 29 20 20 23 28 23 29 26 24 29 22 19 23 13 13 16 15 18 22 18 19 19 17 26 23 19 19 16 16 15 15 14 13 14 13 15 13 11 8 12 20 18 23 19 12 12 6 7 7 6
55 55 55 53 53 53 55 55 55 54 49 46 47 49 52 52 52 49 50 42 33 41 43 44 40 40 37 34 40 34 26 27 23 28 36 34 21 27 30 18 20 24 23 14 16 20 17 14 23 21 27 19 20 25 25 18 15 25 27 20 21 27 22 21 17 17 16 16 22 14 12 8 16 14 11 11 16 14 13 16 15 17 19 19 18 15 14 8
54 54 54 53 53 54 54 55 51 51 51 53 46 52 50 52 51 50 48 38 38 40 50 49 50 47 42 47 44 34 37 29 28 26 36 34 25 19 20 22 19 21 24 19 14 20 16 23 31 19 29 29 30 23 22 29 19 19 28 28 26 23 19 23 24 19 16 12 15 16 4 8 16 16 13 13 15 10 8 9 7 8 12 8 6 9 11 18
54 54 53 52 53 53 54 54 49 50 51 46 50 50 46 51 50 51 41 30 29 39 43 42 49 39 47 33 46 41 28 24 29 34 30 35 34 21 22 24 19 22 15 23 14 20 14 24 31 32 31 32 31 30 30 30 23 21 19 28 22 20 24 25 23 20 15 11 13 8 5 6 19 18 14 15 15 7 5 7 7 10 9 6 12 10 7 8
54 54 53 52 53 53 50 49 48 51 49 53 46 50 50 48 52 47 42 35 30 39 40 40 44 42 48 40 38 34 30 30 30 29 34 39 25 30 21 22 20 16 13 13 20 18 13 21 28 30 28 29 26 19 30 27 24 15 27 30 20 24 23 21 21 19 15 20 21 13 12 4 5 10 16 15 14 6 3 4 7 8 2 4 6 6 7 7
54 53 52 52 53 52 47 49 50 46 44 51 51 48 50 52 51 50 41 27 18 40 38 34 44 47 42 37 41 26 24 24 27 21 25 35 31 22 23 21 19 17 15 19 20 29 19 30 28 29 29 25 22 28 29 31 23 21 22 22 20 21 19 19 19 16 17 15 12 10 18 6 8 10 15 15 11 5 2 2 5 5 5 4 5 7 5 5
53 53 52 52 52 52 51 48 49 49 50 48 50 49 51 50 50 39 31 20 40 36 43 33 45 41 36 35 29 29 26 26 24 22 35 25 35 23 17 23 18 15 14 16 18 24 22 28 28 29 23 16 25 23 25 29 22 24 23 26 25 23 21 19 16 18 17 5 8 9 16 7 6 17 15 14 11 4 1 1 -1 4 6 5 8 7 6 4
53 52 52 53 52 54 52 51 50 51 48 48 49 49 51 49 47 39 29 21 39 34 35 39 40 33 31 29 26 25 23 23 25 22 24 19 32 35 19 23 18 18 25 17 21 23 24 24 28 20 24 25 22 21 30 22 25 28 28 25 25 25 23 23 21 20 10 6 9 16 15 7 10 16 16 13 15 7 0 -2 1 4 5 2 6 4 8 8
53 51 52 51 49 52 44 40 50 49 49 50 50 49 50 47 35 24 19 26 35 39 35 38 33 37 29 28 28 22 29 23 27 24 22 20 18 20 17 22 25 23 22 23 24 26 25 29 26 29 31 26 25 27 30 26 28 27 21 19 17 16 13 11 14 15 4 8 12 5 12 15 6 6 12 2 0 -1 -0 -1 -1 1 -0 5 6 7 7 6
52 51 52 49 52 52 45 51 50 50 49 49 49 48 42 31 35 23 20 26 29 36 34 34 37 35 30 37 34 32 30 30 26 22 24 20 22 17 16 20 23 25 25 22 24 27 23 26 31 33 31 31 29 25 25 29 29 26 22 18 12 13 11 9 14 6 6 7 6 3 7 -3 -5 2 0 -1 -1 -1 1 1 1 -2 -2 5 5 5 9 11
51 52 51 51 52 51 52 51 52 50 49 48 50 40 34 31 23 27 26 32 24 39 36 41 38 33 38 35 34 36 36 31 29 25 32 29 26 28 31 27 31 25 24 25 21 21 25 29 30 30 28 31 33 20 18 25 25 23 18 14 8 9 6 5 7 8 8 11 5 3 6 -6 -3 -3 -3 -2 -1 0 2 3 3 1 0 3 5 9 10 11
51 51 49 52 52 52 52 52 51 49 48 49 48 28 31 27 25 38 35 32 35 37 36 37 34 35 35 30 35 35 30 35 31 26 26 26 25 25 29 31 28 27 26 22 16 18 19 22 26 26 21 31 32 28 21 18 11 9 20 11 17 10 5 5 5 5 7 9 10 8 -0 5 0 7 2 -1 0 1 0 0 4 3 5 6 5 8 6 7
52 49 49 52 51 50 50 50 50 50 49 49 30 24 27 26 26 24 27 28 34 29 32 36 35 35 34 32 33 34 31 30 33 28 27 24 21 23 26 25 31 24 25 21 23 17 19 22 29 26 24 28 29 25 24 24 20 21 21 20 12 16 12 8 7 6 6 3 2 2 4 4 3 6 6 3 2 1 4 -0 3 2 6 8 8 9 9 7
50 50 51 50 51 51 50 51 50 50 49 36 23 20 24 28 27 33 32 32 31 35 33 35 35 32 30 30 34 33 37 30 29 26 26 24 24 25 27 28 28 24 22 23 22 22 21 18 25 25 27 11 11 23 25 26 19 15 14 16 16 10 8 10 12 13 13 10 2 8 3 9 2 4 3 3 1 -1 -0 -3 -0 4 5 6 8 9 6 9
49 51 50 51 51 51 50 50 51 49 49 35 17 18 25 29 27 32 34 29 31 30 33 25 27 28 30 27 29 31 30 29 27 23 24 25 21 26 26 28 33 28 25 26 21 22 20 21 27 26 22 21 22 21 25 24 24 14 10 13 20 14 16 10 3 8 2 -2 -0 6 4 1 2 7 5 1 1 -2 1 -2 -4 4 4 4 8 8 8 7
49 48 47 48 52 50 50 50 50 48 43 25 17 26 31 28 26 24 39 37 32 34 27 27 27 33 27 23 22 29 31 25 28 24 25 26 25 28 28 28 30 31 25 31 21 22 25 21 25 27 24 24 25 24 19 25 21 16 17 21 6 6 5 -4 10 0 3 3 4 4 4 6 3 3 5 2 1 0 -3 1 -1 0 2 6 7 6 6 7
48 46 46 49 51 50 50 51 50 44 33 23 21 25 29 27 25 30 35 33 37 36 28 30 26 31 28 25 27 29 27 22 26 23 23 25 23 27 26 29 30 27 24 24 21 19 23 22 22 26 24 22 22 19 15 13 22 22 20 12 19 4 13 5 11 10 4 1 4 5 5 4 10 -0 5 2 -4 1 -3 -0 -0 1 3 5 7 9 8 8
46 45 46 50 50 50 50 50 47 43 28 23 25 28 35 33 28 27 35 28 34 31 31 28 31 24 30 31 31 28 29 27 26 27 25 26 23 28 25 30 29 27 21 23 23 26 18 17 18 20 23 17 9 13 13 11 11 7 3 -2 8 13 11 6 3 7 5 2 2 2 -1 6 11 -2 -1 -2 -3 -0 -0 2 5 6 5 5 7 9 8 8
48 44 45 49 50 50 50 48 39 33 29 29 30 32 34 34 34 29 34 30 33 27 25 30 30 28 29 27 25 30 28 29 28 26 27 26 23 24 28 27 28 24 24 23 21 23 21 15 18 12 9 8 15 23 22 23 18 7 3 2 3 11 5 1 2 3 5 -2 -0 -2 -2 7 13 3 1 -0 1 6 4 3 5 5 5 7 9 8 7 9
44 41 44 49 50 49 45 39 38 36 33 32 32 34 35 38 35 35 34 35 33 30 27 24 26 28 28 29 28 31 29 28 28 28 27 26 28 25 29 29 25 24 21 20 20 24 21 19 17 16 15 16 19 21 21 19 20 20 10 5 11 4 6 5 -0 5 8 7 6 4 -1 -0 8 3 3 3 3 0 4 3 4 7 8 7 9 9 10 10
45 44 47 49 49 49 43 39 40 36 35 35 40 39 38 36 34 35 30 34 34 33 32 30 26 27 27 26 28 29 30 29 28 27 26 27 27 23 31 28 27 25 19 13 20 17 29 21 19 13 18 19 12 19 20 18 18 14 11 17 8 -3 2 2 4 3 8 5 3 3 1 5 9 9 6 1 6 6 6 2 5 10 10 11 9 9 10 10
44 44 44 48 50 48 43 37 35 36 37 38 38 37 39 36 35 33 31 32 30 33 28 29 32 26 26 32 27 26 30 26 29 29 29 28 27 24 28 29 22 22 21 17 20 24 19 17 17 19 18 14 -2 -3 4 14 15 1 -2 5 12 16 12 17 12 10 4 6 2 1 -2 0 14 12 9 6 6 3 0 1 7 11 11 12 9 11 12 11
44 46 45 46 49 48 40 39 36 35 35 36 36 35 35 36 37 32 31 32 31 29 31 28 26 32 30 33 31 29 31 28 25 31 28 26 25 25 26 28 19 21 25 29 30 28 24 22 20 18 18 19 19 14 8 8 4 1 11 9 14 9 4 5 3 8 3 2 -2 2 -0 -1 7 10 6 5 5 5 1 5 7 10 10 10 12 12 12 12
43 37 43 42 45 44 43 44 42 39 36 36 35 35 36 34 36 37 35 33 31 30 28 32 36 31 30 30 29 29 29 30 28 26 25 23 20 23 24 26 25 27 26 30 29 27 25 23 19 22 22 22 23 13 14 17 2 1 6 4 1 10 8 6 7 6 1 2 4 4 3 1 3 3 7 5 4 4 0 4 5 10 10 11 11 13 13 13
45 37 39 34 41 41 40 42 41 40 37 37 34 36 35 35 35 35 37 33 34 32 33 31 32 31 30 30 29 28 28 29 30 30 27 23 20 21 26 25 25 27 28 28 30 25 23 19 20 20 20 20 20 17 15 12 0 1 3 0 3 5 13 13 8 2 1 6 -1 2 4 6 5 5 5 5 4 5 5 6 7 8 11 12 13 13 18 12
40 40 39 40 37 34 36 37 41 40 40 38 35 36 34 35 35 34 37 35 35 34 32 34 33 32 31 30 29 28 28 28 28 28 30 28 19 19 23 25 23 26 26 27 30 23 21 20 22 20 18 18 17 15 15 8 4 1 0 2 -1 3 11 12 11 6 -0 3 -1 -3 1 7 5 3 3 2 7 6 5 6 8 9 10 11 12 12 12 12
44 45 41 41 33 36 38 38 40 40 39 39 37 37 35 35 34 35 36 34 34 33 34 31 32 33 32 32 30 28 28 26 28 30 29 26 24 21 22 23 25 26 26 23 25 26 22 19 20 19 18 18 17 16 15 11 7 6 5 5 3 -0 -0 5 7 7 6 6 2 -0 -1 2 5 5 5 6 9 8 7 9 9 9 10 13 13 12 13 13
43 43 39 43 39 36 38 38 39 40 39 39 38 37 37 36 35 36 37 36 33 33 35 33 32 33 34 33 32 29 29 29 29 27 30 27 25 24 23 24 25 25 26 24 23 24 21 19 21 18 18 18 18 16 15 12 9 7 7 7 4 1 -1 2 1 6 10 7 5 3 4 6 7 7 8 9 9 10 9 7 7 10 13 13 13 13 13 13
47 46 42 39 39 39 37 39 39 39 38 39 38 38 38 37 36 37 36 38 35 34 34 33 34 33 34 33 33 32 32 31 31 31 31 29 27 27 25 26 26 24 25 24 24 22 23 20 22 21 18 17 18 15 15 14 14 12 12 10 8 5 3 1 4 1 5 8 6 7 9 9 9 12 12 9 6 7 8 9 11 13 14 14 14 14 14 14
50 49 44 40 36 38 37 38 40 39 36 38 38 38 38 38 38 38 35 38 38 37 35 34 34 33 32 32 32 33 34 34 34 33 33 32 33 31 29 30 28 26 24 23 25 22 23 21 20 20 17 17 17 17 12 10 10 11 11 10 11 10 9 8 8 8 6 5 7 8 9 10 11 13 9 5 3 7 9 9 12 14 15 14 14 14 14 14